Location: Chillicothe
(39.7950°N, 93.5520°W)
Time: 13:50:50
(UTC-05:00)

Transit 4A - Visible Passes

Search period start: 23 October 2019 00:00
Search period end: 02 November 2019 00:00
Orbit: 867 x 978 km, 66.8° (Epoch: 23 October)

Date Brightness Start Highest point End Pass type
(mag) Time Alt. Az. Time Alt. Az. Time Alt. Az.
23 Oct 8.4 04:43:13 57° ESE 04:43:27 57° ESE 04:49:33 10° NE visible
23 Oct 8.9 06:26:48 18° W 06:30:08 27° NW 06:35:23 10° N visible
24 Oct 8.0 04:53:16 75° NE 04:53:16 75° NE 04:58:59 10° NNE visible
24 Oct 9.3 06:36:50 15° WNW 06:39:49 20° NW 06:44:18 10° N visible
25 Oct 10.6 03:19:35 13° ENE 03:19:35 13° ENE 03:20:35 10° ENE visible
25 Oct 8.2 05:03:09 58° N 05:03:09 58° N 05:08:18 10° NNE visible
25 Oct 9.6 06:46:42 11° WNW 06:49:36 15° NW 06:52:58 10° N visible
26 Oct 10.4 03:29:21 16° ENE 03:29:21 16° ENE 03:30:41 10° NE visible
26 Oct 8.6 05:12:55 41° NNW 05:12:55 41° NNW 05:17:31 10° NNE visible
26 Oct 9.8 06:58:02 10° NW 06:59:28 11° NNW 07:00:54 10° NNW visible
27 Oct 10.3 03:39:01 17° NE 03:39:01 17° NE 03:40:26 10° NE visible
27 Oct 9.0 05:22:34 30° NNW 05:22:34 30° NNW 05:26:38 10° NNE visible
28 Oct 10.2 03:48:35 18° NE 03:48:35 18° NE 03:49:59 10° NE visible
28 Oct 9.3 05:32:08 22° NNW 05:32:08 22° NNW 05:35:38 10° N visible
29 Oct 10.2 03:58:06 17° NNE 03:58:06 17° NNE 03:59:22 10° NNE visible
29 Oct 9.6 05:41:37 17° NNW 05:41:37 17° NNW 05:44:28 10° N visible
30 Oct 10.2 04:07:32 16° NNE 04:07:32 16° NNE 04:08:39 10° NNE visible
30 Oct 9.8 05:51:04 13° NNW 05:51:04 13° NNW 05:52:58 10° N visible
31 Oct 10.2 04:16:56 14° NNE 04:16:56 14° NNE 04:17:49 10° NNE visible
01 Nov 10.3 04:26:17 13° N 04:26:17 13° N 04:26:53 10° N visible
